Change the Weather History Date:

Tuesday, April 22, 2014

  Actual Average Record
Temperature  
Mean Temperature 56 °F -  
Max Temperature 65 °F 61 °F 73 °F (2004)
Min Temperature 46 °F 44 °F 32 °F (2013)
Degree Days  
Heating Degree Days 10    
Growing Degree Days 6 (Base 50)    
Moisture  
Dew Point 50 °F    
Average Humidity 77    
Maximum Humidity 100    
Minimum Humidity 52    
Precipitation  
Precipitation 0.09 in - - ()
Sea Level Pressure  
Sea Level Pressure 29.64 in    
Wind  
Wind Speed 4 mph (WSW)    
Max Wind Speed 30 mph    
Max Gust Speed 53 mph    
Visibility 12 miles    
Events Rain , Thunderstorm    
Averages and records for this station are not official NWS values.
T = Trace of Precipitation, MM = Missing Value Source: NWS Daily Summary

Daily Weather History Graph

Daily Weather History Graph

Search for Another Location

Airport or City:

Trip Planner

Search our weather history database for the weather conditions in past years. The results will help you decide how hot, cold, wet, or windy it might be!

Date:

Astronomy

Apr. 22, 2014 Rise Set
Actual Time 6:17 AM EDT 7:52 PM EDT
Civil Twilight 5:48 AM EDT 8:21 PM EDT
Nautical Twilight 5:14 AM EDT 8:56 PM EDT
Astronomical Twilight 4:37 AM EDT 9:33 PM EDT
Moon 2:06 AM EDT (4/22) 12:50 PM EDT (4/22)
Length of Visible Light 14h 32m
Length of Day
13h 34m
Last Quarter, 46% of the Moon is Illuminated
Apr 22
Last Quarter
Apr 29
New
May 6
First Quarter
May 14
Full
May 21
Last Quarter

Hourly Weather History & Observations

Time (EDT) Temp. Dew Point Humidity Pressure Visibility Wind Dir Wind Speed Gust Speed Precip Events Conditions
6:32 AM 46.4 °F 33.8 °F 62% 29.76 in 20.0 mi Calm Calm - N/A   Overcast
6:55 AM 46.0 °F 40.3 °F 80% 29.75 in 20.0 mi Calm Calm - N/A   Overcast
7:55 AM 50.5 °F 40.5 °F 68% 29.74 in 20.0 mi Calm Calm - N/A   Overcast
8:55 AM 53.1 °F 40.8 °F 63% 29.72 in 20.0 mi Calm Calm - N/A   Overcast
9:55 AM 56.1 °F 42.1 °F 59% 29.68 in 20.0 mi Calm Calm - N/A   Overcast
10:55 AM 59.5 °F 43.0 °F 54% 29.68 in 20.0 mi SSW 4.6 mph - N/A   Overcast
11:55 AM 60.8 °F 43.0 °F 52% 29.67 in 20.0 mi SW 6.9 mph - N/A   Overcast
12:24 PM 60.8 °F 42.8 °F 52% 29.66 in 10.0 mi SSW 5.8 mph - N/A Rain Light Rain
12:55 PM 59.9 °F 48.6 °F 66% 29.65 in 10.0 mi SW 6.9 mph - 0.00 in Rain Light Rain
1:08 PM 59.0 °F 48.2 °F 67% 29.65 in 10.0 mi WSW 6.9 mph - N/A Rain Light Rain
1:55 PM 56.1 °F 55.8 °F 99% 29.65 in 7.0 mi SW 5.8 mph - 0.04 in Rain Light Rain
2:58 PM 57.6 °F 57.2 °F 99% 29.62 in 7.0 mi Variable 3.5 mph - 0.00 in   Overcast
3:58 PM 60.1 °F 57.2 °F 90% 29.60 in 7.0 mi SW 5.8 mph - N/A   Overcast
4:58 PM 64.8 °F 57.9 °F 78% 29.57 in 7.0 mi Variable 6.9 mph - N/A   Mostly Cloudy
5:58 PM 65.5 °F 57.6 °F 76% 29.57 in 7.0 mi SW 10.4 mph - N/A Thunderstorm Mostly Cloudy
6:03 PM 64.4 °F 55.4 °F 73% 29.58 in 6.0 mi WSW 29.9 mph 52.9 mph N/A Rain , Thunderstorm Light Thunderstorms and Rain
6:45 PM 57.2 °F 55.4 °F 94% 29.60 in 6.0 mi WSW 10.4 mph - N/A Rain Light Rain
6:58 PM 56.8 °F 56.5 °F 99% 29.58 in 7.0 mi Variable 6.9 mph - 0.04 in Rain Light Rain
7:12 PM 55.4 °F 55.4 °F 100% 29.57 in 7.0 mi North 3.5 mph - N/A   Mostly Cloudy
7:58 PM 55.2 °F 55.2 °F 100% 29.60 in 7.0 mi WSW 6.9 mph - 0.01 in   Mostly Cloudy
8:58 PM 54.0 °F 54.0 °F 100% 29.61 in 7.0 mi West 6.9 mph - N/A   Scattered Clouds
9:58 PM 58.6 °F 49.6 °F 72% 29.61 in 7.0 mi WNW 17.3 mph 24.2 mph N/A   Clear